Weather History for Galesburg, IL

Change the Weather History Date:

Monday, April 9, 2012

  Actual Average Record
Temperature  
Mean Temperature 55 °F -  
Max Temperature 68 °F 57 °F 79 °F (1978)
Min Temperature 42 °F 36 °F 23 °F (1989)
Degree Days  
Heating Degree Days 10    
Growing Degree Days 5 (Base 50)    
Moisture  
Dew Point 20 °F    
Average Humidity 28    
Maximum Humidity 58    
Minimum Humidity 10    
Precipitation  
Precipitation 0.00 in - - ()
Sea Level Pressure  
Sea Level Pressure 30.07 in    
Wind  
Wind Speed 13 mph (West)    
Max Wind Speed 32 mph    
Max Gust Speed 41 mph    
Visibility 10 miles    
Events      
Averages and records for this station are not official NWS values.
T = Trace of Precipitation, MM = Missing Value Source: NWS Daily Summary

Daily Weather History Graph

Daily Weather History Graph

Search for Another Location

Airport:

Trip Planner

Search our weather history database for the weather conditions in past years. The results will help you decide how hot, cold, wet, or windy it might be!

Date:

Astronomy

Apr. 09, 2012 Rise Set
Actual Time 6:31 AM CDT 7:35 PM CDT
Civil Twilight 6:03 AM CDT 8:03 PM CDT
Nautical Twilight 5:29 AM CDT 8:37 PM CDT
Astronomical Twilight 4:54 AM CDT 9:12 PM CDT
Moon 11:32 PM CDT (4/9) 8:17 AM CDT (4/9)
Length of Visible Light 14h 00m
Length of Day
13h 04m
Waning Gibbous, 88% of the Moon is Illuminated
Apr 9
Waning Gibbous
Apr 13
Last Quarter
Apr 21
New
Apr 29
First Quarter
May 5
Full

Hourly Weather History & Observations

Time (CDT) Temp. Windchill Dew Point Humidity Pressure Visibility Wind Dir Wind Speed Gust Speed Precip Events Conditions
12:15 AM 56.8 °F - 28.2 °F 33% 30.07 in 10.0 mi SSW 9.2 mph - N/A   Overcast
12:35 AM 56.8 °F - 28.4 °F 34% 30.07 in 10.0 mi SSW 11.5 mph - N/A   Overcast
12:55 AM 55.8 °F - 29.1 °F 36% 30.06 in 10.0 mi SSW 11.5 mph - N/A   Overcast
1:15 AM 55.4 °F - 29.5 °F 37% 30.05 in 10.0 mi SSW 10.4 mph - N/A   Overcast
1:35 AM 55.9 °F - 29.3 °F 36% 30.05 in 10.0 mi SW 12.7 mph - N/A   Overcast
1:55 AM 55.9 °F - 29.8 °F 37% 30.05 in 10.0 mi WSW 15.0 mph 18.4 mph N/A   Overcast
2:15 AM 55.9 °F - 30.2 °F 37% 30.06 in 10.0 mi WSW 15.0 mph 19.6 mph N/A   Overcast
2:35 AM 55.6 °F - 30.7 °F 39% 30.06 in 10.0 mi West 17.3 mph 21.9 mph N/A   Overcast
2:55 AM 54.5 °F - 30.9 °F 41% 30.06 in 10.0 mi West 11.5 mph - N/A   Scattered Clouds
3:15 AM 51.8 °F - 31.3 °F 46% 30.07 in 10.0 mi West 9.2 mph - N/A   Clear
3:35 AM 50.2 °F - 30.9 °F 48% 30.07 in 10.0 mi West 9.2 mph - N/A   Clear
3:55 AM 48.6 °F - 30.6 °F 50% 30.08 in 10.0 mi West 8.1 mph - N/A   Clear
4:15 AM 46.8 °F - 30.2 °F 53% 30.08 in 10.0 mi West 6.9 mph - N/A   Clear
4:35 AM 45.7 °F 41.5 °F 30.0 °F 54% 30.08 in 10.0 mi West 8.1 mph - N/A   Clear
4:55 AM 46.4 °F 42.9 °F 29.8 °F 53% 30.09 in 10.0 mi West 6.9 mph - N/A   Clear
5:15 AM 45.1 °F 42.0 °F 29.3 °F 54% 30.08 in 10.0 mi West 5.8 mph - N/A   Clear
5:35 AM 44.6 °F 40.7 °F 29.7 °F 56% 30.09 in 10.0 mi West 6.9 mph - N/A   Clear
5:55 AM 43.7 °F 39.7 °F 29.3 °F 57% 30.09 in 10.0 mi West 6.9 mph - N/A   Clear
6:15 AM 42.8 °F 38.0 °F 28.9 °F 58% 30.10 in 10.0 mi West 8.1 mph - N/A   Clear
6:35 AM 42.8 °F 38.6 °F 28.4 °F 57% 30.10 in 10.0 mi West 6.9 mph - N/A   Clear
7:15 AM 43.0 °F 38.8 °F 28.2 °F 56% 30.11 in 10.0 mi WSW 6.9 mph - N/A   Clear
7:35 AM 48.2 °F - 28.4 °F 46% 30.12 in 10.0 mi West 8.1 mph - N/A   Clear
7:55 AM 50.0 °F - 28.2 °F 43% 30.12 in 10.0 mi West 9.2 mph - N/A   Clear
8:15 AM 52.5 °F - 27.3 °F 38% 30.12 in 10.0 mi West 11.5 mph - N/A   Clear
8:35 AM 54.3 °F - 25.9 °F 33% 30.12 in 10.0 mi West 9.2 mph - N/A   Clear
8:55 AM 56.1 °F - 24.3 °F 29% 30.12 in 10.0 mi West 11.5 mph 17.3 mph N/A   Clear
9:15 AM 57.2 °F - 23.0 °F 27% 30.13 in 10.0 mi WNW 9.2 mph - N/A   Clear
9:35 AM 58.1 °F - 22.6 °F 25% 30.14 in 10.0 mi West 15.0 mph - N/A   Clear
9:55 AM 59.0 °F - 22.5 °F 24% 30.14 in 10.0 mi WNW 10.4 mph - N/A   Clear
10:15 AM 60.4 °F - 19.2 °F 20% 30.13 in 10.0 mi WNW 12.7 mph 21.9 mph N/A   Clear
10:35 AM 61.7 °F - 17.6 °F 18% 30.13 in 10.0 mi West 13.8 mph 18.4 mph N/A   Clear
10:55 AM 62.6 °F - 17.8 °F 18% 30.12 in 10.0 mi WNW 13.8 mph 18.4 mph N/A   Clear
11:15 AM 64.2 °F - 16.3 °F 16% 30.11 in 10.0 mi WNW 13.8 mph 19.6 mph N/A   Clear
11:35 AM 63.9 °F - 13.8 °F 14% 30.11 in 10.0 mi West 20.7 mph 26.5 mph N/A   Clear
11:55 AM 64.4 °F - 12.6 °F 13% 30.11 in 10.0 mi WNW 17.3 mph 26.5 mph N/A   Clear
12:15 PM 65.3 °F - 11.1 °F 12% 30.10 in 10.0 mi West 24.2 mph 31.1 mph N/A   Clear
12:35 PM 66.0 °F - 14.0 °F 13% 30.10 in 10.0 mi West 16.1 mph 26.5 mph N/A   Clear
12:55 PM 66.0 °F - 11.1 °F 12% 30.09 in 10.0 mi West 23.0 mph 31.1 mph N/A   Clear
1:15 PM 66.7 °F - 12.2 °F 12% 30.08 in 10.0 mi West 27.6 mph 34.5 mph N/A   Clear
1:35 PM 66.9 °F - 11.5 °F 12% 30.07 in 10.0 mi West 26.5 mph 34.5 mph N/A   Clear
1:55 PM 67.3 °F - 11.7 °F 12% 30.06 in 10.0 mi West 26.5 mph 35.7 mph N/A   Clear
2:15 PM 67.3 °F - 11.5 °F 11% 30.06 in 10.0 mi West 27.6 mph 34.5 mph N/A   Clear
2:35 PM 67.3 °F - 12.2 °F 12% 30.05 in 10.0 mi West 24.2 mph 32.2 mph N/A   Clear
2:55 PM 68.0 °F - 10.0 °F 11% 30.05 in 10.0 mi West 27.6 mph 41.4 mph N/A   Clear
3:15 PM 68.4 °F - 11.3 °F 11% 30.04 in 10.0 mi West 23.0 mph 35.7 mph N/A   Clear
3:35 PM 68.2 °F - 9.5 °F 10% 30.03 in 10.0 mi West 25.3 mph 36.8 mph N/A   Clear
3:55 PM 68.0 °F - 8.6 °F 10% 30.02 in 10.0 mi WNW 28.8 mph 38.0 mph N/A   Clear
4:15 PM 67.1 °F - 10.6 °F 11% 30.02 in 10.0 mi West 26.5 mph 38.0 mph N/A   Clear
4:35 PM 66.9 °F - 11.1 °F 11% 30.02 in 10.0 mi WNW 24.2 mph 39.1 mph N/A   Clear
4:55 PM 66.2 °F - 11.1 °F 12% 30.02 in 10.0 mi West 32.2 mph 39.1 mph N/A   Clear
5:15 PM 65.8 °F - 12.2 °F 12% 30.02 in 10.0 mi WNW 25.3 mph 35.7 mph N/A   Clear
5:35 PM 65.1 °F - 13.1 °F 13% 30.02 in 10.0 mi West 26.5 mph 39.1 mph N/A   Clear
5:55 PM 64.8 °F - 12.7 °F 13% 30.02 in 10.0 mi West 18.4 mph 28.8 mph N/A   Clear
6:15 PM 64.0 °F - 12.9 °F 14% 30.02 in 10.0 mi West 18.4 mph 26.5 mph N/A   Clear
6:35 PM 63.3 °F - 14.7 °F 15% 30.01 in 10.0 mi WNW 15.0 mph 20.7 mph N/A   Clear
6:55 PM 62.2 °F - 14.5 °F 16% 30.01 in 10.0 mi WNW 12.7 mph 23.0 mph N/A   Clear
7:15 PM 60.8 °F - 15.4 °F 17% 30.01 in 10.0 mi WNW 10.4 mph 16.1 mph N/A   Clear
7:35 PM 58.6 °F - 16.3 °F 19% 30.01 in 10.0 mi WNW 6.9 mph - N/A   Clear
7:55 PM 56.3 °F - 17.2 °F 22% 30.01 in 10.0 mi WNW 6.9 mph - N/A   Clear
8:15 PM 54.5 °F - 17.6 °F 23% 30.02 in 10.0 mi WNW 4.6 mph - N/A   Clear
8:35 PM 52.9 °F - 16.9 °F 24% 30.02 in 10.0 mi WNW 4.6 mph - N/A   Clear
8:55 PM 50.7 °F - 18.3 °F 28% 30.03 in 10.0 mi WNW 4.6 mph - N/A   Clear
9:15 PM 50.2 °F - 18.1 °F 28% 30.04 in 10.0 mi WNW 5.8 mph - N/A   Clear
9:35 PM 51.8 °F - 18.3 °F 27% 30.05 in 10.0 mi NW 11.5 mph - N/A   Clear
9:55 PM 50.7 °F - 19.0 °F 29% 30.05 in 10.0 mi NW 8.1 mph - N/A   Clear
10:15 PM 49.1 °F - 18.7 °F 30% 30.06 in 10.0 mi NW 6.9 mph - N/A   Clear
10:35 PM 48.2 °F - 18.9 °F 31% 30.07 in 10.0 mi WNW 5.8 mph - N/A   Clear
10:55 PM 46.9 °F - 19.0 °F 33% 30.08 in 10.0 mi WNW 4.6 mph - N/A   Clear
11:15 PM 47.5 °F - 18.0 °F 31% 30.08 in 10.0 mi NW 9.2 mph - N/A   Clear
11:35 PM 47.3 °F - 17.4 °F 30% 30.09 in 10.0 mi NW 8.1 mph - N/A   Clear
11:55 PM 46.4 °F 42.9 °F 17.6 °F 32% 30.09 in 10.0 mi WNW 6.9 mph - N/A   Clear